Location: Aula-Vintri
(58.3875°N, 22.4322°E)
Time: 09:15:24
(UTC+00:00)

Cosmos 371 Rocket - Pass Details

Date: 13 October 2019
Orbit: 684 x 699 km, 74.0° (Epoch: 11 November)

Event Time Altitude Azimuth Distance (km) Brightness Sun altitude
Rises 17:14:02 0° 224° (SW) 3,046 7.1 -14.2°
Reaches altitude 10° 17:16:23 10° 229° (SW) 2,133 6.4 -14.5°
Maximum altitude 17:21:06 56° 307° (NW) 823 4.0 -15.1°
Drops below altitude 10° 17:25:51 10° 26° (NNE) 2,146 5.7 -15.7°
Sets 17:28:13 0° 31° (NNE) 3,066 6.4 -16.0°
